Voltar ao catálogo

CZ-6A DEB

AtivoPO
NORAD 61269·DEBRIS·🇨🇳 China

Lançado Aug 6, 2024 de Taiyuan Satellite Launch Center

Loading…

Próximas Passagens (próximas 24 horas)

TLE

AtualizadoSource: Space-Track

Época: Sep 13, 2026, 00:59 UTC

1 61269U 24140SE  26256.04124245  .00003749  00000-0  12994-2 0  9998
2 61269  89.0523 268.4874 0027244 211.1296 148.8290 14.35281532106860

Acompanhe CZ-6A DEB em tempo real com AllMySat

Download on the App Store